Weather History for LTBA - November, 2012

Change the Weather History Date:

Tuesday, November 13, 2012

  Actual Average Record
Temperature  
Mean Temperature 58 °F -  
Max Temperature 65 °F 54 °F 71 °F (2001)
Min Temperature 50 °F 44 °F 39 °F (2003)
Degree Days  
Heating Degree Days 8    
Growing Degree Days 8 (Base 50)    
Moisture  
Dew Point 46 °F    
Average Humidity 63    
Maximum Humidity 82    
Minimum Humidity 42    
Precipitation  
Precipitation 0.03 in - - ()
Sea Level Pressure  
Sea Level Pressure 30.22 in    
Wind  
Wind Speed 7 mph ()    
Max Wind Speed 14 mph    
Max Gust Speed -    
Visibility 6.2 miles    
Events      
Averages and records for this station are not official NWS values.
T = Trace of Precipitation, MM = Missing Value Source: Averaged Metar Reports

Daily Weather History Graph

Daily Weather History Graph

Search for Another Location

Airport or City:

Trip Planner

Search our weather history database for the weather conditions in past years. The results will help you decide how hot, cold, wet, or windy it might be!

Date:

Astronomy

Nov. 13, 2012 Rise Set
Actual Time 6:50 AM EET 4:47 PM EET
Civil Twilight 6:20 AM EET 5:17 PM EET
Nautical Twilight 5:47 AM EET 5:50 PM EET
Astronomical Twilight 5:15 AM EET 6:22 PM EET
Moon 6:04 AM EET (11/13) 4:24 PM EET (11/13)
Length of Visible Light 10h 56m
Length of Day
9h 57m
Waning Crescent, 0% of the Moon is Illuminated
Nov 13
Waning Crescent
Nov 14
New
Nov 20
First Quarter
Nov 28
Full
Dec 6
Last Quarter

Hourly Weather History & Observations

Time (EET) Temp. Dew Point Humidity Pressure Visibility Wind Dir Wind Speed Gust Speed Precip Events Conditions
12:20 AM 53.6 °F 46.4 °F 77% 30.27 in - North 5.8 mph - N/A   Clear
12:50 AM 53.6 °F 46.4 °F 77% 30.27 in - North 5.8 mph - N/A   Clear
1:20 AM 55.4 °F 46.4 °F 72% 30.27 in - Variable 6.9 mph - N/A   Clear
1:50 AM 55.4 °F 46.4 °F 72% 30.27 in - NNE 8.1 mph - N/A   Clear
2:00 AM 55 °F 47 °F 66% 30.27 in 6 mi NNE 8.1 mph - -  
2:20 AM 55.4 °F 46.4 °F 72% 30.24 in - NE 6.9 mph - N/A   Clear
2:50 AM 55.4 °F 46.4 °F 72% 30.24 in - NNE 5.8 mph - N/A   Clear
3:20 AM 55.4 °F 46.4 °F 72% 30.24 in - NNE 4.6 mph - N/A   Clear
3:50 AM 55.4 °F 46.4 °F 72% 30.24 in - NNE 6.9 mph - N/A   Clear
4:20 AM 55.4 °F 46.4 °F 72% 30.24 in - NNE 5.8 mph - N/A   Clear
4:50 AM 53.6 °F 46.4 °F 77% 30.24 in - NNE 5.8 mph - N/A   Clear
5:20 AM 50.0 °F 44.6 °F 82% 30.24 in - North 5.8 mph - N/A   Clear
5:50 AM 53.6 °F 48.2 °F 82% 30.24 in - North 4.6 mph - N/A   Clear
6:20 AM 55.4 °F 46.4 °F 72% 30.24 in 6.2 mi NNE 6.9 mph - N/A   Partly Cloudy
6:50 AM 57.2 °F 46.4 °F 67% 30.24 in 6.2 mi NNE 5.8 mph - N/A   Scattered Clouds
7:20 AM 57.2 °F 46.4 °F 67% 30.24 in 6.2 mi ENE 5.8 mph - N/A   Mostly Cloudy
7:50 AM 57.2 °F 46.4 °F 67% 30.24 in 6.2 mi NE 6.9 mph - N/A   Scattered Clouds
8:00 AM 58 °F 46 °F 54% 30.27 in 6 mi NE 6.9 mph - -   Partly Cloudy
8:20 AM 60.8 °F 46.4 °F 59% 30.24 in 6.2 mi Variable 6.9 mph - N/A   Scattered Clouds
8:50 AM 60.8 °F 46.4 °F 59% 30.24 in 6.2 mi NE 9.2 mph - N/A   Scattered Clouds
9:20 AM 60.8 °F 46.4 °F 59% 30.24 in 6.2 mi ENE 8.1 mph - N/A   Scattered Clouds
9:50 AM 60.8 °F 46.4 °F 59% 30.24 in 6.2 mi ENE 8.1 mph - N/A   Scattered Clouds
10:20 AM 62.6 °F 48.2 °F 59% 30.24 in 6.2 mi East 9.2 mph - N/A   Scattered Clouds
10:50 AM 62.6 °F 46.4 °F 55% 30.24 in 6.2 mi East 9.2 mph - N/A   Scattered Clouds
11:20 AM 62.6 °F 46.4 °F 55% 30.24 in 6.2 mi ENE 6.9 mph - N/A   Scattered Clouds
11:50 AM 62.6 °F 48.2 °F 59% 30.24 in 6.2 mi NNE 9.2 mph - N/A   Scattered Clouds
12:20 PM 62.6 °F 46.4 °F 55% 30.21 in 6.2 mi NE 6.9 mph - N/A   Scattered Clouds
12:50 PM 64.4 °F 46.4 °F 52% 30.21 in 6.2 mi ENE 8.1 mph - N/A   Scattered Clouds
1:20 PM 64.4 °F 48.2 °F 56% 30.21 in 6.2 mi NNE 8.1 mph - N/A   Scattered Clouds
1:50 PM 64.4 °F 46.4 °F 52% 30.21 in 6.2 mi NE 6.9 mph - N/A   Mostly Cloudy
2:00 PM 64 °F 46 °F 42% 30.21 in 6 mi NE 6.9 mph - -   Partly Cloudy
2:20 PM 62.6 °F 46.4 °F 55% 30.18 in 6.2 mi NE 9.2 mph - N/A   Mostly Cloudy
2:50 PM 62.6 °F 46.4 °F 55% 30.18 in 6.2 mi NNE 10.4 mph - N/A   Mostly Cloudy
3:20 PM 62.6 °F 46.4 °F 55% 30.18 in 6.2 mi NE 12.7 mph - N/A   Mostly Cloudy
3:50 PM 60.8 °F 46.4 °F 59% 30.18 in 6.2 mi NNE 13.8 mph - N/A   Mostly Cloudy
4:20 PM 60.8 °F 46.4 °F 59% 30.18 in 6.2 mi NE 10.4 mph - N/A   Mostly Cloudy
4:50 PM 59.0 °F 46.4 °F 63% 30.18 in 6.2 mi NE 9.2 mph - N/A   Mostly Cloudy
5:20 PM 59.0 °F 46.4 °F 63% 30.18 in 6.2 mi NNE 11.5 mph - N/A   Mostly Cloudy
5:50 PM 59.0 °F 46.4 °F 63% 30.21 in 6.2 mi NNE 11.5 mph - N/A   Mostly Cloudy
6:20 PM 59.0 °F 46.4 °F 63% 30.21 in 6.2 mi NNE 10.4 mph - N/A   Mostly Cloudy
6:50 PM 59.0 °F 46.4 °F 63% 30.21 in 6.2 mi NNE 9.2 mph - N/A   Mostly Cloudy
7:20 PM 59.0 °F 46.4 °F 63% 30.21 in 6.2 mi NNE 9.2 mph - N/A   Mostly Cloudy
7:50 PM 59.0 °F 46.4 °F 63% 30.21 in 6.2 mi NE 8.1 mph - N/A   Scattered Clouds
8:00 PM 58 °F 46 °F 56% 30.22 in 6 mi NE 8.1 mph - -   Partly Cloudy
8:20 PM 59.0 °F 46.4 °F 63% 30.21 in 6.2 mi NE 6.9 mph - N/A   Mostly Cloudy
8:50 PM 59.0 °F 46.4 °F 63% 30.21 in 6.2 mi ENE 8.1 mph - N/A   Mostly Cloudy
9:20 PM 59.0 °F 46.4 °F 63% 30.21 in 6.2 mi ENE 9.2 mph - N/A   Mostly Cloudy
9:50 PM 59.0 °F 46.4 °F 63% 30.21 in 6.2 mi ENE 8.1 mph - N/A   Mostly Cloudy
10:20 PM 59.0 °F 46.4 °F 63% 30.21 in 6.2 mi NE 8.1 mph - N/A   Mostly Cloudy
10:50 PM 59.0 °F 46.4 °F 63% 30.21 in 6.2 mi NNE 8.1 mph - N/A   Mostly Cloudy
11:20 PM 59.0 °F 46.4 °F 63% 30.21 in 6.2 mi NNE 9.2 mph - N/A   Mostly Cloudy
11:50 PM 59.0 °F 46.4 °F 63% 30.21 in 6.2 mi NNE 9.2 mph - N/A   Mostly Cloudy